Change the Weather History Date:

Tuesday, May 14, 2013

  Actual Average (KPOU) Record (KPOU)
Temperature  
Mean Temperature 46 °F 58 °F  
Max Temperature 60 °F 71 °F 86 °F (1961)
Min Temperature 32 °F 46 °F 30 °F (1951)
Degree Days  
Heating Degree Days 19 8  
Month to date heating degree days 130  
Since 1 July heating degree days 6069  
Cooling Degree Days 0 0  
Month to date cooling degree days 8  
Year to date cooling degree days 13  
Moisture  
Dew Point 28 °F    
Average Humidity 56    
Maximum Humidity 92    
Minimum Humidity 24    
Precipitation  
Precipitation 0.00 in 0.13 in 1.14 in (1978)
Month to date precipitation 1.79  
Year to date precipitation 14.88  
Sea Level Pressure  
Sea Level Pressure 30.07 in    
Wind  
Wind Speed 5 mph (WSW)    
Max Wind Speed 10 mph    
Max Gust Speed 17 mph    
Visibility 10 miles    
Events      
T = Trace of Precipitation, MM = Missing Value Source: NWS Daily Summary

Daily Weather History Graph

Daily Weather History Graph

Search for Another Location

Airport or City:

Trip Planner

Search our weather history database for the weather conditions in past years. The results will help you decide how hot, cold, wet, or windy it might be!

Date:

Astronomy

May. 14, 2013 Rise Set
Actual Time 5:38 AM EDT 8:08 PM EDT
Civil Twilight 5:07 AM EDT 8:40 PM EDT
Nautical Twilight 4:28 AM EDT 9:19 PM EDT
Astronomical Twilight 3:44 AM EDT 10:03 PM EDT
Moon 9:16 AM EDT (5/14) 11:54 PM EDT (5/14)
Length of Visible Light 15h 33m
Length of Day
14h 30m
Waxing Crescent, 19% of the Moon is Illuminated
May 14
Waxing Crescent
May 18
First Quarter
May 25
Full
May 31
Last Quarter
Jun 8
New

Hourly Weather History & Observations

Time (EDT) Temp. Windchill Dew Point Humidity Pressure Visibility Wind Dir Wind Speed Gust Speed Precip Events Conditions
12:54 AM 37.9 °F 35.5 °F 30.0 °F 73% 30.11 in 10.0 mi NW 3.5 mph - N/A   Clear
1:54 AM 35.1 °F 31.0 °F 30.9 °F 85% 30.11 in 10.0 mi South 4.6 mph - N/A   Clear
2:54 AM 32.0 °F 28.7 °F 30.0 °F 92% 30.12 in 10.0 mi WSW 3.5 mph - N/A   Clear
3:54 AM 33.1 °F 30.0 °F 30.9 °F 92% 30.11 in 10.0 mi SSW 3.5 mph - N/A   Clear
4:54 AM 33.1 °F 30.0 °F 30.0 °F 89% 30.11 in 10.0 mi South 3.5 mph - N/A   Clear
5:54 AM 32.0 °F 25.6 °F 28.9 °F 88% 30.12 in 10.0 mi WSW 6.9 mph - N/A   Clear
6:54 AM 35.1 °F 31.0 °F 32.0 °F 89% 30.12 in 10.0 mi SSW 4.6 mph - N/A   Clear
7:54 AM 43.0 °F 40.3 °F 33.1 °F 68% 30.12 in 10.0 mi WSW 4.6 mph - N/A   Clear
8:54 AM 48.0 °F - 28.9 °F 48% 30.12 in 10.0 mi Calm Calm - N/A   Clear
9:54 AM 50.0 °F - 28.9 °F 44% 30.11 in 10.0 mi WNW 6.9 mph - N/A   Clear
10:54 AM 52.0 °F - 27.0 °F 38% 30.10 in 10.0 mi WNW 5.8 mph 16.1 mph N/A   Scattered Clouds
11:54 AM 54.0 °F - 25.0 °F 33% 30.08 in 10.0 mi SW 6.9 mph - N/A   Clear
12:54 PM 57.0 °F - 23.0 °F 27% 30.07 in 10.0 mi Variable 4.6 mph - N/A   Clear
1:54 PM 57.9 °F - 25.0 °F 28% 30.06 in 10.0 mi North 6.9 mph - N/A   Partly Cloudy
2:54 PM 57.0 °F - 24.1 °F 28% 30.05 in 10.0 mi WSW 10.4 mph 16.1 mph N/A   Clear
3:54 PM 59.0 °F - 25.0 °F 27% 30.03 in 10.0 mi West 6.9 mph 17.3 mph N/A   Clear
4:54 PM 60.1 °F - 23.0 °F 24% 30.01 in 10.0 mi West 10.4 mph 17.3 mph N/A   Clear
5:54 PM 60.1 °F - 23.0 °F 24% 30.01 in 10.0 mi NW 9.2 mph - N/A   Clear
6:54 PM 57.9 °F - 21.0 °F 24% 30.02 in 10.0 mi WNW 10.4 mph - N/A   Clear
7:54 PM 54.0 °F - 27.0 °F 35% 30.01 in 10.0 mi Calm Calm - N/A   Clear
8:54 PM 46.0 °F - 32.0 °F 58% 30.03 in 10.0 mi Calm Calm - N/A   Clear
9:54 PM 43.0 °F - 33.1 °F 68% 30.05 in 10.0 mi Calm Calm - N/A   Clear
10:54 PM 37.9 °F 33.5 °F 32.0 °F 79% 30.05 in 10.0 mi SSW 5.8 mph - N/A   Clear
11:54 PM 39.0 °F - 33.1 °F 79% 30.06 in 10.0 mi Calm Calm - N/A   Clear